EW0395 Weather Reports


time (UTC)temp
C
wind
direction
speed
KPH
gust
KPH
rain 1hr
cm
rain 24hr
cm
rain mn
cm
humidity
%
barometer
mb
20260504171532 18 186 3.2 9.7 0.00 0.00 0.00 38 1006.7
20260504081534 3 0 0.0 1.6 0.00 0.00 0.00 85 1008.9
20260504044535 0 0 0.0 0.0 0.00 0.00 0.00 88 1009.3
20260504043032 -1 0 0.0 0.0 0.00 0.00 0.00 89 1009.3
20260504041542 -1 0 0.0 0.0 0.00 0.00 0.00 88 1009.1
20260504040040 -1 0 0.0 0.0 0.00 0.00 0.00 88 1009.0
20260504034544 -1 0 0.0 0.0 0.00 0.00 0.00 88 1009.1
20260504033031 -1 0 0.0 0.0 0.00 0.00 0.00 88 1009.1
20260504031534 -1 0 0.0 0.0 0.00 0.00 0.00 87 1009.2
20260504030036 -1 0 0.0 0.0 0.00 0.00 0.00 86 1009.2
20260504024537 -1 0 0.0 1.6 0.00 0.00 0.00 84 1009.0
20260504023036 0 0 0.0 0.0 0.00 0.00 0.00 83 1009.1
20260504021534 0 0 0.0 0.0 0.00 0.00 0.00 82 1009.2
20260504020037 0 0 0.0 0.0 0.00 0.00 0.00 82 1009.1
20260504014532 0 0 0.0 0.0 0.00 0.00 0.00 79 1009.1
20260504013042 1 0 0.0 0.0 0.00 0.00 0.00 79 1008.9
20260504011530 1 0 0.0 0.0 0.00 0.00 0.00 75 1008.7
20260504010037 2 0 0.0 0.0 0.00 0.00 0.00 72 1008.5
20260504004532 3 0 0.0 0.0 0.00 0.00 0.00 70 1008.4
20260504003032 3 0 0.0 0.0 0.00 0.00 0.00 67 1008.2
20260504001536 4 0 0.0 0.0 0.00 0.00 0.00 61 1008.0
20260504000030 5 0 0.0 1.6 0.00 0.00 0.00 59 1007.9
20260503234532 5 0 0.0 1.6 0.00 0.00 0.00 56 1007.7
20260503233034 6 294 1.6 11.3 0.00 0.00 0.00 54 1007.6
20260503231534 7 0 0.0 3.2 0.00 0.00 0.00 57 1007.4
20260503230039 7 298 0.0 1.6 0.00 0.00 0.00 56 1007.4
20260503224530 7 287 0.0 3.2 0.00 0.00 0.00 52 1007.4
20260503223031 7 198 0.0 4.8 0.00 0.00 0.00 53 1007.4
20260503221533 7 0 0.0 6.4 0.00 0.00 0.00 49 1007.3
20260503220033 8 189 1.6 9.7 0.00 0.00 0.00 49 1007.2
20260503214539 7 259 1.6 6.4 0.00 0.00 0.00 50 1007.2
20260503213031 7 0 0.0 9.7 0.00 0.00 0.00 50 1007.3
20260503211533 8 205 1.6 6.4 0.00 0.00 0.00 46 1007.1
20260503210030 8 214 1.6 4.8 0.00 0.00 0.00 50 1007.0
20260503204532 8 303 3.2 11.3 0.00 0.05 0.00 49 1007.0
20260503203035 8 315 1.6 11.3 0.00 0.05 0.00 50 1006.8
20260503201532 8 275 3.2 12.9 0.00 0.05 0.00 47 1006.7
20260503200032 8 271 3.2 9.7 0.00 0.05 0.00 46 1006.6
20260503194529 8 51 3.2 11.3 0.00 0.25 0.00 46 1006.6
20260503193043 7 21 3.2 12.9 0.00 0.25 0.00 49 1006.7
20260503191559 8 286 1.6 16.1 0.00 0.25 0.00 50 1006.8
20260503190034 7 280 1.6 16.1 0.00 0.25 0.00 46 1006.8
20260503184536 8 244 3.2 9.7 0.00 0.36 0.00 46 1006.8
20260503183035 9 282 1.6 11.3 0.00 0.36 0.00 46 1006.6
20260503181544 8 223 1.6 8.0 0.00 0.36 0.00 48 1006.6
20260503180033 8 171 3.2 14.5 0.00 0.36 0.00 48 1006.6
20260503174534 8 231 1.6 11.3 0.00 0.36 0.00 45 1006.5
20260503173035 8 248 3.2 6.4 0.00 0.36 0.00 48 1006.4